Regional Weather Roundup
Issued by NWS

Home | Current Version | Previous Version | Graphics & Text | Print | Product List | Glossary On
Versions: 1 2 3 4 5 6 7 8 9 10 11 12 13 14 15 16 17 18 19 20 21 22 23 24 25 26 27 28 29 30 31 32 33 34 35 36 37 38 39 40 41 42 43 44 45 46 47 48 49 50
000
ASUS43 KMPX 061510
RWRMN
WEATHER ROUNDUP FOR MINNESOTA
NATIONAL WEATHER SERVICE TWIN CITIES/CHANHASSEN MN
900 AM CST FRI MAR 06 2015


NOTE: "FAIR" INDICATES FEW OR NO CLOUDS BELOW 12,000 FEET WITH NO
SIGNIFICANT WEATHER AND/OR OBSTRUCTIONS TO VISIBILITY. N/A MEANS
CURRENT SKY AND/OR WEATHER CONDITIONS ARE NOT AVAILABLE.

MNZ060>063-068>070-061600-
   Twin Cities Metro

CITY           SKY/WX    TMP DP  RH WIND       PRES   REMARKS
TWIN CITIES    PTSUNNY   20   8  60 SW8       30.07S WCI  10
ST PAUL        CLOUDY    18   7  62 SE5       30.09F WCI  11
CRYSTAL        PTSUNNY   20   8  60 SW9       30.05S WCI   9
BLAINE         PTSUNNY   21  10  63 SW7       30.05R WCI  13
LAKEVILLE      FAIR      18   9  68 SW3       30.07S
EDEN PRAIRIE   SUNNY     20   9  62 SW8       30.06S WCI  10
SOUTH ST PAUL  PTSUNNY   19   8  60 CALM      30.08S
LAKE ELMO      CLOUDY    18   9  68 SW8       30.08S WCI   7
$$
MNZ001>005-007-008-013>017-022>024-027-028-061600-
   Northwest Minnesota

CITY           SKY/WX    TMP DP  RH WIND       PRES   REMARKS
BEMIDJI        SUNNY     16   8  71 W7        29.97S WCI   6
HALLOCK        SUNNY     12   7  79 W5        30.02R WCI   4
ROSEAU         SUNNY     12   7  79 W9        29.98R WCI   0
WARROAD        SUNNY     12   7  79 W7        29.97R WCI   2
THIEF RVR FALL SUNNY     16   9  73 W9        30.02R WCI   4
CROOKSTON      SUNNY     18  12  79 NW12      30.06R WCI   5
FOSSTON        SUNNY     12   7  79 CALM      30.02R
DETROIT LAKES  SUNNY     18  12  79 NW7       30.04R WCI   8
MOORHEAD       SUNNY     19  14  79 NW10      30.09R WCI   8
PARK RAPIDS    SUNNY     16   8  71 NW8       29.98R WCI   5
MAHNOMEN       FAIR      16  10  79 W7        30.03R WCI   6
$$
MNZ006-009>011-018-025>026-061600-
   North Central Minnesota

CITY           SKY/WX    TMP DP  RH WIND       PRES   REMARKS
BAUDETTE       SUNNY     15   7  70 NW10      29.95R WCI   2
FLAG ISLAND    SUNNY     12   7  79 NW8       29.94R WCI   1
INTL FALLS     SUNNY     15   5  64 NW10      29.92R WCI   2
WASKISH        SUNNY     14   9  79 CALM      29.97S
BIG FORK       SUNNY     19   9  63 NW7       29.94R WCI  10
LONGVILLE      SUNNY     19   9  63 NW10      29.97R WCI   8
GRAND RAPIDS   SUNNY     18   9  68 NW12      29.94S WCI   5
CRANE LAKE     SUNNY     16   7  67 W7        29.93R WCI   6
ORR            SUNNY     16   5  62 W6        29.89R WCI   7
COOK           SUNNY     16   7  67 W14       29.91S WCI   1
WALKER         FAIR      17   8  67 NW10      29.97R WCI   5
$$
MNZ012-019>021-037-061600-
   Northeast Minnesota

CITY           SKY/WX    TMP DP  RH WIND       PRES   REMARKS
DULUTH         SUNNY     15   5  64 W14       29.93S WCI   0
ELY            SUNNY     16   5  62 W13       29.89S WCI   2
HIBBING        SUNNY     17   5  59 VRB7G16   29.93R WCI   8
EVELETH        SUNNY     18   7  62 W9        29.92F WCI   6
DULUTH HARBOR  SUNNY     18   7  62 SW13      30.01F WCI   4
TWO HARBORS    SUNNY     19   9  63 W9        29.92F WCI   9
SILVER BAY     SUNNY     19   7  58 SW7       29.91F WCI  10
GRAND MARAIS     N/A     22  13  68 W13G21    29.93F WCI  10
G MARAIS ARPRT SUNNY     16   0  48 SW5       29.83S WCI   9
$$
MNZ029>031-032-039>041-046>048-054>057-064-061600-
   West Central Minnesota

CITY           SKY/WX    TMP DP  RH WIND       PRES   REMARKS
FERGUS FALLS   SUNNY     16   9  73 NW12      30.10R WCI   3
WHEATON        SUNNY     19  12  73 NW12      30.11R WCI   7
MORRIS         SUNNY     21  14  73 NW14G21   30.05R WCI   8
ALEXANDRIA     SUNNY     18  10  71 NW12      30.02R WCI   5
ELBOW LAKE     FAIR      17  11  78 NW13      30.05R WCI   3
WADENA         SUNNY     16   9  73 W7        30.00R WCI   6
GLENWOOD       SUNNY     19  10  68 W10       30.04R WCI   8
APPLETON       SUNNY     25  16  68 NW9       30.08R WCI  15
BENSON         SUNNY     25  12  58 N10       30.06R WCI  15
ORTONVILLE     SUNNY     25  12  58 NW9       30.08R WCI  15
MADISON        SUNNY     27  16  63 NW10      30.08R WCI  17
WILLMAR        FAIR      27  14  59 W10       30.05R WCI  17
$$
MNZ033>034-036-042>043-049>051-058-059-061600-
   Central Minnesota

CITY           SKY/WX    TMP DP  RH WIND       PRES   REMARKS
ST CLOUD       SUNNY     18   9  68 SW5       30.03R WCI  11
SAUK CENTRE    FAIR      20  12  69 W10       30.02R WCI   9
PAYNESVILLE    SUNNY     20  12  70 SW10      30.03S WCI   9
AITKIN         SUNNY     21   9  58 W5        29.97S WCI  15
PINE RIVER     SUNNY     18  10  73 NW7       30.01S WCI   8
BRAINERD       SUNNY     14   7  73 W5        30.00R WCI   6
STAPLES        SUNNY     16   9  73 W8        30.00R WCI   5
LONG PRAIRIE   FAIR      19  10  68 W9G16     30.02R WCI   9
LITTLE FALLS   SUNNY     19   9  63 W5        30.02R WCI  13
LITCHFIELD     SUNNY     21  12  68 SW6       30.04S WCI  14
BUFFALO        SUNNY     19   9  67 SW7       30.06R WCI   9
MAPLE LAKE     SUNNY     20  12  71 SW7       30.05S WCI  11
$$
MNZ037-044-045-052-053-061600-
   East Central Minnesota

CITY           SKY/WX    TMP DP  RH WIND       PRES   REMARKS
PRINCETON      SUNNY     19  10  68 S7        30.03S WCI  10
MORA           SUNNY     18   7  62 SW7       30.04S WCI   8
CAMBRIDGE      SUNNY     19   9  63 SW6       30.02S WCI  11
RUSH CITY      SUNNY     17   6  63 S3        30.05R
MOOSE LAKE     SUNNY     16   5  62 CALM      29.99S
HINCKLEY       FAIR      18   9  68 SW6       30.02S WCI   9
CLOQUET        SUNNY     14   5  67 SW10      29.96S WCI   1
MCGREGOR       SUNNY     19  10  68 W8        29.99R WCI   9
$$
MNZ071>073-080-081-089-090-097-098-061600-
   Southwest Minnesota

CITY           SKY/WX    TMP DP  RH WIND       PRES   REMARKS
MONTEVIDEO     SUNNY     28  18  64 N7        30.08R WCI  21
GRANITE FALLS  SUNNY     27  17  66 W8        30.08R WCI  19
CANBY          SUNNY     29  17  60 W14       30.09R WCI  19
MARSHALL       SUNNY     34  18  51 W15       30.08R WCI  24
REDWOOD FALLS  SUNNY     25  13  60 W10       30.07R WCI  15
OLIVIA         SUNNY     28  19  69 W10       30.05R WCI  19
PIPESTONE      SUNNY     21  12  68 CALM      30.06F
WINDOM         SUNNY     27  16  63 W10       30.07S WCI  17
WORTHINGTON    SUNNY     25  14  63 W12       30.10R WCI  14
JACKSON        SUNNY     27  14  59 SW10      30.08S WCI  17
TRACY          SUNNY     31  18  57 W13G18    30.06R WCI  22
SLAYTON        SUNNY     26  13  59 W10       30.07R WCI  16
$$
MNZ065>067-074>077-082>085-091>093-061600-
   South Central Minnesota

CITY           SKY/WX    TMP DP  RH WIND       PRES   REMARKS
MANKATO        SUNNY     21  12  68 S8        30.08S WCI  12
NEW ULM        SUNNY     23  12  63 W7        30.07S WCI  15
ST JAMES       SUNNY     28  18  64 SW10      30.08S WCI  19
FAIRMONT       SUNNY     25  12  58 SW12      30.07S WCI  14
GLENCOE        SUNNY     22  15  72 SW6       30.06S WCI  15
FARIBAULT      PTSUNNY   18   9  68 S6        30.09S WCI   9
OWATONNA       SUNNY     16   9  73 S12       30.08F WCI   3
WASECA         SUNNY     21  12  68 SW12      30.10S WCI   9
ALBERT LEA     SUNNY     21  10  63 S8        30.10S WCI  12
$$
MNZ078>079-086>088-094>096-061600-
   Southeast Minnesota

CITY           SKY/WX    TMP DP  RH WIND       PRES   REMARKS
ROCHESTER      SUNNY     14   7  73 S17       30.10S WCI  -3
RED WING       CLOUDY    19   5  53 S3        30.11S
STANTON        MOSUNNY   20  10  64 SW16      30.08R WCI   6
DODGE CENTER   MOSUNNY   16   9  73 SW17      30.08F WCI   0
WINONA         SUNNY     19   9  63 S6        30.17F WCI  11
AUSTIN         SUNNY     12   7  79 S12       30.11F WCI  -2
PRESTON        SUNNY     13   6  72 S13G20    30.13S WCI  -1
$$
ABBREVIATIONS USED IN REMARKS
   TC - TEMPERATURES IN CELSIUS
  WCI - WIND CHILL INDEX
   HX - HEAT INDEX
  VSB - VISIBILITY
$$


USA.gov is the U.S. government's official web portal to all federal, state and local government web resources and services.